Pensacola, FL

8:21 PM CST on February 19, 2017 (GMT -0600)
Pensacola Regional

Weather History for KPNS - January, 2017

Change the Weather History Date:

Sunday, January 1, 2017

  Actual Average Record
Temperature  
Mean Temperature 72 °F 51 °F  
Max Temperature 79 °F 60 °F 80 °F (1975)
Min Temperature 64 °F 42 °F 23 °F (1928)
Degree Days  
Heating Degree Days 0 14  
Month to date heating degree days 14  
Since 1 July heating degree days 596  
Cooling Degree Days 6 0  
Month to date cooling degree days 0  
Year to date cooling degree days 0  
Growing Degree Days 22 (Base 50)    
Moisture  
Dew Point 67 °F    
Average Humidity 89    
Maximum Humidity 93    
Minimum Humidity 76    
Precipitation  
Precipitation 3.19 in 0.14 in 4.84 in (1936)
Month to date precipitation 0.14  
Year to date precipitation 0.14  
Snow  
Snow 0.00 in 0.00 in T in (2002)
Month to date snowfall 0.0  
Since 1 July snowfall 0.0  
Snow Depth -    
Sea Level Pressure  
Sea Level Pressure 30.01 in    
Wind  
Wind Speed 11 mph (SSW)    
Max Wind Speed 26 mph    
Max Gust Speed 43 mph    
Visibility 5 miles    
Events Rain , Thunderstorm    
T = Trace of Precipitation, MM = Missing Value Source: NWS Daily Summary

Daily Weather History Graph

Daily Weather History Graph

Search for Another Location

Airport or City:

Trip Planner

Search our weather history database for the weather conditions in past years. The results will help you decide how hot, cold, wet, or windy it might be!

Date:

Astronomy

Jan. 01, 2017 Rise Set
Actual Time 6:45 AM CST 4:59 PM CST
Civil Twilight 6:19 AM CST 5:25 PM CST
Nautical Twilight 5:49 AM CST 5:55 PM CST
Astronomical Twilight 5:20 AM CST 6:24 PM CST
Moon 9:03 AM CST (1/1) 8:22 PM CST (1/1)
Length of Visible Light 11h 06m
Length of Day
10h 13m
Waxing Crescent, 12% of the Moon is Illuminated
Jan 1
Waxing Crescent
Jan 5
First Quarter
Jan 12
Full
Jan 19
Last Quarter
Jan 27
New

Hourly Weather History & Observations

Time (CST) Temp. Dew Point Humidity Pressure Visibility Wind Dir Wind Speed Gust Speed Precip Events Conditions
12:03 AM 64.9 °F 63.0 °F 93% 29.99 in 2.5 mi ESE 8.1 mph - 0.09 in Rain Rain
12:12 AM 64.9 °F 63.0 °F 93% 29.99 in 4.0 mi SE 6.9 mph - 0.11 in Rain Light Rain
12:26 AM 64.9 °F 63.0 °F 93% 29.97 in 4.0 mi ESE 11.5 mph - 0.13 in Rain Light Rain
12:36 AM 64.9 °F 63.0 °F 93% 29.96 in 4.0 mi ESE 12.7 mph - 0.15 in Rain Light Rain
12:53 AM 66.0 °F 63.0 °F 90% 29.97 in 2.5 mi SE 10.4 mph - 0.21 in Rain Heavy Rain
1:01 AM 66.9 °F 64.9 °F 93% 29.96 in 5.0 mi SSE 13.8 mph - 0.01 in Rain Light Rain
1:20 AM 69.1 °F 64.9 °F 87% 30.01 in 2.5 mi WSW 26.5 mph 42.6 mph 0.04 in Rain Light Rain
1:23 AM 68.0 °F 64.0 °F 87% 30.00 in 1.8 mi WSW 17.3 mph 42.6 mph 0.10 in Rain Heavy Rain
1:46 AM 66.9 °F 64.0 °F 90% 29.97 in 3.0 mi Variable 4.6 mph - 0.41 in Rain Light Rain
1:53 AM 68.0 °F 64.0 °F 87% 29.98 in 5.0 mi Variable 3.5 mph - 0.41 in Rain Rain
2:10 AM 70.0 °F 66.9 °F 90% 29.98 in 4.0 mi North - - 0.04 in Rain Rain
2:25 AM 68.0 °F 64.9 °F 90% 29.96 in 2.0 mi North - - 0.12 in Rain Heavy Rain
2:35 AM 69.1 °F 66.0 °F 90% 29.97 in 7.0 mi SSE 6.9 mph - 0.15 in Rain Light Rain
2:42 AM 69.1 °F 66.0 °F 90% 29.96 in 10.0 mi SE 11.5 mph - 0.15 in Rain Light Rain
2:53 AM 70.0 °F 66.9 °F 90% 29.97 in 6.0 mi SSE 11.5 mph - 0.16 in Rain Light Rain
3:00 AM 69.1 °F 66.9 °F 93% 29.96 in 5.0 mi SSE 10.4 mph - 0.01 in Rain Rain
3:07 AM 70.0 °F 66.9 °F 90% 29.96 in 5.0 mi South 12.7 mph - 0.01 in Rain Light Rain
3:42 AM 71.1 °F 68.0 °F 90% 29.94 in 7.0 mi SSE 12.7 mph - 0.04 in Rain Light Rain
3:53 AM 70.0 °F 66.9 °F 90% 29.93 in 8.0 mi SSE 17.3 mph - 0.04 in Rain , Thunderstorm Light Rain
4:03 AM 70.0 °F 66.9 °F 90% 29.98 in 2.0 mi West 21.9 mph 32.2 mph 0.02 in Rain , Thunderstorm Light Thunderstorms and Rain
4:08 AM 66.9 °F 64.9 °F 93% 29.97 in 1.0 mi West 13.8 mph 32.2 mph 0.22 in Rain , Thunderstorm Heavy Thunderstorms and Rain
4:10 AM 66.9 °F 64.9 °F 93% 29.97 in 0.8 mi WSW 12.7 mph 32.2 mph 0.33 in Rain , Thunderstorm Heavy Thunderstorms and Rain
4:16 AM 66.9 °F 64.9 °F 93% 29.97 in 1.5 mi SW 9.2 mph - 0.45 in Rain , Thunderstorm Heavy Rain
4:31 AM 66.9 °F 64.0 °F 90% 29.97 in 1.8 mi WNW 12.7 mph 20.7 mph 0.72 in Rain Heavy Rain
4:39 AM 66.9 °F 64.9 °F 93% 29.97 in 3.0 mi West 9.2 mph - 0.81 in Rain Light Rain
4:53 AM 66.9 °F 64.0 °F 90% 29.98 in 1.8 mi WNW 13.8 mph 18.4 mph 0.98 in Rain Heavy Rain
4:58 AM 66.9 °F 64.0 °F 90% 29.98 in 4.0 mi West 11.5 mph 18.4 mph 0.01 in Rain Light Rain
5:53 AM 66.9 °F 64.9 °F 93% 29.99 in 10.0 mi NNW 9.2 mph - 0.02 in   Overcast
6:01 AM 70.0 °F 66.0 °F 87% 30.00 in 8.0 mi WNW 10.4 mph 20.7 mph 0.00 in Rain , Thunderstorm Light Thunderstorms and Rain
6:04 AM 69.1 °F 64.0 °F 84% 30.00 in 1.5 mi West 10.4 mph 20.7 mph 0.00 in Rain , Thunderstorm Heavy Thunderstorms and Rain
6:18 AM 66.9 °F 64.9 °F 93% 30.01 in 1.8 mi SSW 8.1 mph - 0.38 in Rain , Thunderstorm Heavy Thunderstorms and Rain
6:25 AM 66.9 °F 64.9 °F 93% 30.00 in 2.0 mi SW 10.4 mph - 0.46 in Rain , Thunderstorm Heavy Thunderstorms and Rain
6:30 AM 66.9 °F 64.0 °F 90% 30.00 in 3.0 mi SW 12.7 mph - 0.48 in Rain Heavy Rain
6:33 AM 66.9 °F 64.0 °F 90% 30.00 in 2.0 mi SW 10.4 mph - 0.49 in Rain Rain
6:53 AM 66.9 °F 64.0 °F 90% 30.01 in 2.0 mi WSW 10.4 mph - 0.53 in Rain Light Rain
7:36 AM 66.9 °F 64.0 °F 90% 30.02 in 2.5 mi WNW 6.9 mph - 0.38 in Rain Heavy Rain
7:53 AM 66.9 °F 64.0 °F 90% 30.03 in 2.5 mi West 3.5 mph - 0.51 in Rain Light Rain
8:24 AM 66.9 °F 64.9 °F 93% 30.02 in 5.0 mi Calm Calm - 0.08 in Rain Light Rain
8:48 AM 68.0 °F 64.4 °F 88% 30.04 in 6.0 mi North - - 0.09 in Rain Light Rain
8:53 AM 68.0 °F 64.9 °F 90% 30.04 in 10.0 mi ESE 4.6 mph - 0.09 in Rain Light Rain
9:26 AM 68.0 °F 64.9 °F 90% 30.05 in 10.0 mi East 4.6 mph - 0.00 in   Overcast
9:53 AM 69.1 °F 66.0 °F 90% 30.05 in 10.0 mi East 5.8 mph - 0.00 in   Overcast
9:55 AM 70.0 °F 66.9 °F 90% 30.05 in 6.0 mi Variable 4.6 mph - N/A   Overcast
10:04 AM 70.0 °F 66.9 °F 90% 30.05 in 10.0 mi ESE 4.6 mph - N/A   Overcast
10:33 AM 71.1 °F 68.0 °F 90% 30.04 in 8.0 mi SE 5.8 mph - N/A   Overcast
10:53 AM 73.0 °F 69.1 °F 87% 30.04 in 6.0 mi SE 8.1 mph - N/A   Overcast
11:21 AM 75.0 °F 70.0 °F 84% 30.03 in 6.0 mi South 15.0 mph - N/A   Haze
11:53 AM 79.0 °F 71.1 °F 77% 30.02 in 9.0 mi South 16.1 mph 23.0 mph N/A   Overcast
11:54 AM 79.0 °F 71.1 °F 77% 30.01 in 9.0 mi South 17.3 mph 23.0 mph N/A   Overcast
12:40 PM 78.1 °F 70.0 °F 76% 29.99 in 9.0 mi South 21.9 mph 27.6 mph N/A   Mostly Cloudy
12:53 PM 78.1 °F 70.0 °F 76% 29.99 in 9.0 mi South 18.4 mph - N/A   Mostly Cloudy
1:08 PM 75.9 °F 70.0 °F 82% 29.99 in 8.0 mi South 15.0 mph 24.2 mph N/A   Overcast
1:25 PM 75.9 °F 70.0 °F 82% 29.98 in 8.0 mi South 13.8 mph 23.0 mph N/A   Overcast
1:53 PM 77.0 °F 70.0 °F 79% 29.98 in 8.0 mi South 17.3 mph - N/A   Overcast
2:53 PM 75.9 °F 70.0 °F 82% 29.99 in 5.0 mi South 15.0 mph - N/A   Overcast
3:36 PM 73.9 °F 71.1 °F 91% 29.99 in 5.0 mi South 15.0 mph - 0.05 in   Overcast
3:53 PM 73.9 °F 71.1 °F 91% 30.00 in 5.0 mi South 15.0 mph - 0.05 in   Overcast
4:00 PM 73.9 °F 70.0 °F 87% 29.99 in 6.0 mi South 11.5 mph - N/A   Overcast
4:53 PM 73.0 °F 70.0 °F 90% 30.01 in 6.0 mi South 13.8 mph - N/A   Overcast
5:53 PM 73.0 °F 70.0 °F 90% 30.02 in 7.0 mi South 12.7 mph - N/A   Overcast
6:12 PM 73.0 °F 70.0 °F 90% 30.01 in 6.0 mi South 12.7 mph - N/A   Overcast
6:53 PM 73.0 °F 70.0 °F 90% 30.02 in 6.0 mi South 12.7 mph - N/A   Overcast
7:10 PM 73.0 °F 70.0 °F 90% 30.01 in 5.0 mi South 15.0 mph - N/A   Overcast
7:17 PM 73.0 °F 70.0 °F 90% 30.01 in 5.0 mi South 15.0 mph - N/A   Overcast
7:53 PM 73.0 °F 71.1 °F 93% 30.04 in 6.0 mi South 13.8 mph - N/A   Overcast
8:53 PM 73.0 °F 70.0 °F 90% 30.05 in 5.0 mi South 13.8 mph - N/A   Overcast
9:53 PM 73.0 °F 71.1 °F 93% 30.05 in 5.0 mi South 10.4 mph - 0.00 in   Overcast
10:53 PM 71.1 °F 68.0 °F 90% 30.06 in 7.0 mi SW 12.7 mph - 0.01 in Rain , Thunderstorm Light Rain
11:03 PM 70.0 °F 66.9 °F 90% 30.07 in 8.0 mi Variable 3.5 mph - 0.00 in Rain , Thunderstorm Light Thunderstorms and Rain
11:10 PM 69.1 °F 64.9 °F 87% 30.09 in 9.0 mi Variable 3.5 mph - 0.01 in Rain , Thunderstorm Light Thunderstorms and Rain
11:19 PM 68.0 °F 64.0 °F 87% 30.09 in 2.5 mi NNE 12.7 mph 19.6 mph 0.06 in Rain , Thunderstorm Heavy Rain
11:24 PM 69.1 °F 64.0 °F 84% 30.09 in 2.0 mi Variable 6.9 mph 28.8 mph 0.11 in Rain , Thunderstorm Heavy Thunderstorms and Rain
11:33 PM 66.9 °F 64.0 °F 90% 30.08 in 5.0 mi NNW 11.5 mph - 0.15 in Rain , Thunderstorm Thunderstorms and Rain
11:43 PM 66.9 °F 64.0 °F 90% 30.07 in 5.0 mi North 6.9 mph - 0.18 in Rain , Thunderstorm Light Rain
11:53 PM 66.9 °F 64.0 °F 90% 30.08 in 10.0 mi NNW 8.1 mph - 0.18 in Rain , Thunderstorm Light Rain